{"data":{"norad_id":63280,"epoch":"2026-05-24T10:58:23.028672Z","epoch_age_seconds":121663,"freshness":"FRESH","line1":"1 63280U 25053R   26144.45721098  .00007012  00000+0  26393-3 0  9992","line2":"2 63280  43.0012 173.6646 0001277 269.8991  90.1714 15.27597636 67786","mean_motion":15.27597636,"eccentricity":0.0001277,"inclination_deg":43.0012,"raan_deg":173.6646,"arg_perigee_deg":269.8991,"mean_anomaly_deg":90.1714,"bstar":0.00026393,"rev_number":6778,"period_min":94.265660411116,"perigee_km":482.12012129832,"apogee_km":483.87245474008,"semimajor_km":6861.1332880192,"source":"CELESTRAK","updated_at":"2026-05-25T13:38:19.927378Z"}}